Temp
74 73 73 74 73 72 72 72 74 72 71 73 74 73 71 70 71 70 70 70 69 69
73 73 73 74 73 72 72 73 73 72 72 72 72 71 71 70 70 70 70 70 69 69
74 72 73 72 72 72 72 73 72 72 72 72 71 71 71 71 71 69 70 70 69 69
72 72 71 70 71 70 71 71 71 70 70 70 70 70 69 69 69 69 69 70 69 68
72 69 68 69 70 70 69 69 68 68 68 69 69 69 69 68 69 68 68 68 67 67
67 68 68 67 68 68 68 69 69 69 69 69 69 68 68 67 67 67 67 67 66 66
67 67 67 67 67 67 68 68 68 68 69 68 67 67 67 67 66 65 66 65 65 65
66 67 67 66 66 67 67 67 67 67 67 67 67 70 67 65 65 64 64 64 65 65
66 65 64 64 64 64 65 65 65 65 65 64 67 63 62 63 63 62 61 61 63 64
63 62 62 63 63 62 62 63 62 63 63 63 64 60 59 62 61 60 61 61 61 61
61 60 60 60 60 60 61 61 61 62 62 62 63 58 57 58 59 59 60 61 62 61
60 59 59 59 58 59 60 60 60 61 60 60 60 55 55 56 57 57 58 61 61 60
58 58 58 57 58 59 59 59 60 60 59 58 57 54 54 55 56 54 55 56 56 58
56 57 58 57 58 58 58 58 57 56 57 56 55 55 52 52 54 53 52 52 54 58
MSLP
1016.16 1016.29 1016.60 1016.70 1016.82 1016.66 1016.17 1016.42 1016.58 1017.03 1017.08 1016.70 1016.63 1016.77 1016.92 1017.17 1017.29 1017.53 1017.76 1017.75 1017.52 1017.47
1015.58 1015.88 1016.07 1016.47 1016.56 1016.69 1016.14 1016.50 1016.62 1016.61 1017.13 1016.89 1016.71 1016.49 1016.64 1016.96 1016.97 1017.11 1016.99 1016.85 1016.79 1016.91
1015.21 1015.61 1015.84 1016.04 1016.41 1016.36 1016.26 1016.71 1016.98 1016.72 1016.59 1016.56 1016.42 1016.22 1016.20 1016.40 1016.58 1016.64 1016.38 1016.20 1016.31 1016.35
1014.97 1015.35 1015.95 1016.22 1016.46 1016.54 1016.33 1016.68 1016.77 1016.66 1016.59 1016.40 1016.47 1016.08 1016.03 1016.21 1016.40 1016.30 1016.09 1015.74 1015.82 1015.83
1015.20 1015.64 1016.10 1016.37 1016.54 1016.60 1016.54 1016.55 1016.68 1016.68 1016.60 1016.36 1016.12 1015.82 1015.84 1015.96 1016.07 1015.90 1015.68 1015.60 1015.65 1015.29
1015.58 1015.92 1016.23 1016.44 1016.52 1016.65 1016.52 1016.41 1016.61 1016.57 1016.39 1016.14 1015.86 1015.73 1015.70 1015.99 1015.87 1015.64 1015.45 1015.36 1015.16 1015.01
1015.84 1016.04 1016.20 1016.36 1016.24 1016.23 1016.43 1016.55 1016.44 1016.38 1016.29 1015.92 1015.80 1015.86 1015.98 1015.98 1015.71 1015.42 1015.17 1014.95 1014.85 1014.56
1016.01 1016.16 1016.36 1016.57 1016.57 1016.41 1016.26 1016.34 1016.55 1016.58 1016.21 1016.04 1016.00 1015.87 1015.82 1015.57 1015.17 1015.01 1014.89 1014.65 1014.38 1014.03
1016.46 1016.79 1016.83 1016.63 1016.47 1016.56 1016.76 1016.89 1016.62 1016.19 1016.05 1015.95 1015.77 1015.53 1015.37 1015.37 1015.26 1015.15 1014.86 1014.43 1013.91 1013.50
1016.89 1016.85 1016.83 1016.78 1016.79 1016.85 1016.74 1016.49 1016.28 1016.08 1015.99 1015.93 1015.79 1015.70 1015.50 1015.50 1015.43 1015.21 1014.70 1014.02 1013.29 1012.51
1016.91 1017.06 1017.09 1017.03 1017.08 1017.00 1016.78 1016.61 1016.46 1016.30 1016.25 1016.26 1016.25 1016.25 1016.20 1015.92 1015.42 1014.65 1013.90 1013.41 1012.97 1012.57
1017.48 1017.39 1017.36 1017.20 1017.17 1017.16 1016.94 1016.76 1016.73 1016.87 1016.90 1016.88 1016.73 1016.46 1015.95 1015.51 1015.27 1014.81 1014.04 1013.38 1012.83 1012.54
1017.70 1017.64 1017.70 1017.84 1017.66 1017.59 1017.60 1017.58 1017.41 1017.13 1016.95 1016.76 1016.67 1016.49 1016.26 1016.15 1015.79 1015.28 1014.57 1013.71 1012.75 1012.23
1018.45 1018.39 1018.26 1018.12 1018.05 1017.95 1017.71 1017.48 1017.38 1017.32 1017.31 1017.26 1017.22 1016.93 1016.75 1016.56 1016.17 1015.42 1014.52 1013.60 1012.65 1011.89
Wind_Speed
8 6 4 4 4 4 3 4 3 3 4 1 1 1 2 1 2 3 5 6 5 4
8 6 5 4 3 4 3 1 1 2 4 4 3 2 0 2 4 4 5 6 6 6
8 6 6 5 3 1 2 1 3 3 3 4 5 5 3 4 6 5 5 5 6 7
6 5 2 2 2 3 3 3 5 5 6 5 7 5 4 5 7 7 6 6 7 9
2 4 4 3 2 2 3 3 5 5 6 6 5 4 4 5 6 7 8 8 8 10
2 2 2 4 3 3 4 4 5 5 5 3 4 4 4 5 6 7 7 8 9 10
3 3 3 4 4 5 4 4 4 3 3 4 4 5 6 5 6 7 7 8 9 10
2 2 2 2 2 3 4 4 4 3 4 4 4 4 4 6 6 7 9 10 10 9
4 4 4 4 5 5 4 3 3 4 4 5 5 9 10 7 6 8 9 10 11 10
4 5 5 4 4 3 4 4 5 6 6 7 7 10 9 10 6 7 10 11 12 12
7 6 6 5 5 5 3 4 4 6 7 7 6 10 8 9 7 9 12 13 13 13
5 5 5 7 6 4 5 5 6 6 6 5 5 11 15 14 12 13 13 13 14 14
6 6 6 6 6 4 4 4 4 5 7 10 10 13 14 12 8 12 11 13 13 16
5 5 4 3 3 3 5 5 6 7 7 9 10 11 12 12 9 8 9 9 10 10
Wind_Direction
210 224 204 217 239 229 188 192 206 283 290 266 238 269 330 323 275 222 236 256 252 269
204 195 202 230 200 246 86 2 246 225 252 254 271 290 316 283 289 252 254 258 269 258
207 187 202 202 250 323 59 338 316 320 314 322 311 295 294 297 288 268 276 269 266 277
204 202 117 89 47 47 75 341 301 307 307 302 291 298 305 295 281 274 275 292 288 281
152 97 104 99 352 329 308 307 293 291 281 286 298 325 325 308 287 287 296 293 279 285
100 70 23 325 322 294 305 319 292 283 287 313 348 342 327 285 297 303 294 284 287 286
34 357 332 326 338 329 318 305 322 327 322 340 334 316 286 291 288 278 284 284 279 282
75 58 38 5 338 12 23 1 330 316 332 324 306 297 296 313 316 313 306 299 291 287
80 79 75 50 35 29 2 332 329 348 338 330 330 334 343 339 331 327 310 301 300 301
76 61 40 31 29 3 349 345 345 342 351 343 334 354 343 3 342 318 306 310 317 324
38 33 18 18 12 354 339 338 347 355 356 353 5 359 353 348 342 336 332 326 318 310
28 24 12 13 360 353 360 1 359 0 360 358 350 8 13 12 355 335 322 318 314 312
23 24 13 359 354 353 3 348 350 13 15 14 0 3 1 4 344 328 316 308 305 304
19 6 15 357 2 359 13 22 18 10 3 7 359 345 337 342 328 311 308 303 306 310